| time (UTC) | temp C | wind direction | speed KPH | gust KPH | rain 1hr cm | rain 24hr cm | rain mn cm | humidity % | barometer mb |
| 20260505200015 | 23 | 194 | 9.7 | 33.8 | 0.00 | 0.00 | 0.00 | 43 | 997.7 |
| 20260505194518 | 23 | 199 | 11.3 | 30.6 | 0.00 | 0.00 | 0.00 | 42 | 998.3 |
| 20260505193031 | 24 | 214 | 12.9 | 29.0 | 0.00 | 0.00 | 0.00 | 43 | 998.6 |
| 20260505191511 | 23 | 245 | 8.0 | 17.7 | 0.00 | 0.00 | 0.00 | 44 | 998.7 |
| 20260505190012 | 22 | 259 | 11.3 | 22.5 | 0.00 | 0.00 | 0.00 | 46 | 999.0 |
| 20260505184534 | -17 | 0.0 | 0.0 | 0.00 | 0.00 | 0.00 | 999.4 | ||
| 20260505183029 | -17 | 0.0 | 0.0 | 0.00 | 0.00 | 0.00 | 1000.0 | ||
| 20260505181535 | -17 | 0.0 | 0.0 | 0.00 | 0.00 | 0.00 | 1000.3 | ||
| 20260505180029 | -17 | 0.0 | 0.0 | 0.00 | 0.00 | 0.00 | 1000.9 | ||
| 20260505174538 | -17 | 0.0 | 0.0 | 0.00 | 0.00 | 0.00 | 1001.0 | ||
| 20260505173029 | -17 | 0.0 | 0.0 | 0.00 | 0.00 | 0.00 | 1001.1 | ||
| 20260505171528 | 20 | 0.0 | 0.0 | 0.00 | 0.00 | 0.00 | 46 | 1001.0 | |
| 20260505170015 | 21 | 188 | 16.1 | 33.8 | 0.00 | 0.00 | 0.00 | 43 | 1000.8 |
| 20260505164511 | 22 | 150 | 9.7 | 24.1 | 0.00 | 0.00 | 0.00 | 42 | 1000.8 |
| 20260505163015 | 21 | 167 | 8.0 | 35.4 | 0.00 | 0.00 | 0.00 | 42 | 1001.0 |
| 20260505161520 | 21 | 164 | 9.7 | 35.4 | 0.00 | 0.00 | 0.00 | 45 | 1001.2 |
| 20260505153035 | -17 | 0.0 | 0.0 | 0.00 | 0.00 | 0.00 | 1001.7 | ||
| 20260505151545 | -17 | 0.0 | 0.0 | 0.00 | 0.00 | 0.00 | 1001.9 | ||
| 20260505124524 | 12 | 221 | 6.4 | 17.7 | 0.00 | 0.00 | 0.00 | 75 | 1003.3 |
| 20260505123026 | 11 | 199 | 4.8 | 12.9 | 0.00 | 0.00 | 0.00 | 76 | 1003.2 |
| 20260505121515 | 10 | 217 | 4.8 | 19.3 | 0.00 | 0.00 | 0.00 | 78 | 1003.2 |
| 20260505120016 | 10 | 164 | 8.0 | 17.7 | 0.00 | 0.00 | 0.00 | 81 | 1003.4 |
| 20260505114522 | 9 | 172 | 8.0 | 19.3 | 0.00 | 0.00 | 0.00 | 83 | 1003.8 |
| 20260505113025 | 8 | 161 | 4.8 | 17.7 | 0.00 | 0.00 | 0.00 | 86 | 1004.0 |
| 20260505111528 | 7 | 205 | 6.4 | 11.3 | 0.00 | 0.00 | 0.00 | 89 | 1004.1 |
| 20260505100028 | 3 | 175 | 3.2 | 8.0 | 0.00 | 0.00 | 0.00 | 94 | 1004.1 |
| 20260505094516 | 3 | 172 | 0.0 | 3.2 | 0.00 | 0.00 | 0.00 | 93 | 1004.0 |
| 20260505093029 | 3 | 182 | 0.0 | 1.6 | 0.00 | 0.00 | 0.00 | 93 | 1004.0 |
| 20260505091528 | 3 | 182 | 0.0 | 1.6 | 0.00 | 0.00 | 0.00 | 92 | 1004.1 |
| 20260505090008 | 3 | 133 | 0.0 | 0.0 | 0.00 | 0.00 | 0.00 | 92 | 1004.1 |
| 20260505084512 | 4 | 133 | 0.0 | 1.6 | 0.00 | 0.00 | 0.00 | 92 | 1004.2 |
| 20260505083002 | 4 | 133 | 0.0 | 3.2 | 0.00 | 0.00 | 0.00 | 92 | 1004.3 |
| 20260505081505 | 5 | 178 | 0.0 | 4.8 | 0.00 | 0.00 | 0.00 | 91 | 1004.5 |
| 20260505080005 | 5 | 178 | 0.0 | 3.2 | 0.00 | 0.00 | 0.00 | 91 | 1004.5 |
| 20260505074512 | 5 | 178 | 0.0 | 6.4 | 0.00 | 0.00 | 0.00 | 92 | 1004.8 |
| 20260505073018 | 5 | 278 | 1.6 | 6.4 | 0.00 | 0.00 | 0.00 | 91 | 1005.1 |
| 20260505071503 | 5 | 168 | 3.2 | 8.0 | 0.00 | 0.00 | 0.00 | 93 | 1004.9 |
| 20260505070006 | 4 | 138 | 1.6 | 6.4 | 0.00 | 0.00 | 0.00 | 91 | 1004.7 |
| 20260505064511 | 5 | 176 | 1.6 | 3.2 | 0.00 | 0.00 | 0.00 | 90 | 1004.8 |
| 20260505063014 | 5 | 177 | 0.0 | 4.8 | 0.00 | 0.00 | 0.00 | 89 | 1004.8 |
| 20260505061519 | 5 | 177 | 1.6 | 4.8 | 0.00 | 0.00 | 0.00 | 89 | 1004.9 |
| 20260505060011 | 5 | 172 | 1.6 | 8.0 | 0.00 | 0.00 | 0.00 | 89 | 1005.1 |
| 20260505054506 | 5 | 183 | 3.2 | 8.0 | 0.00 | 0.00 | 0.00 | 89 | 1004.9 |
| 20260505053012 | 5 | 168 | 6.4 | 9.7 | 0.00 | 0.00 | 0.00 | 88 | 1004.8 |
| 20260505051518 | 5 | 180 | 3.2 | 6.4 | 0.00 | 0.00 | 0.00 | 87 | 1004.8 |
| 20260505041512 | 5 | 168 | 1.6 | 6.4 | 0.00 | 0.00 | 0.00 | 86 | 1005.1 |
| 20260505040017 | 5 | 169 | 1.6 | 6.4 | 0.00 | 0.00 | 0.00 | 85 | 1005.0 |
| 20260505034523 | 5 | 174 | 1.6 | 6.4 | 0.00 | 0.00 | 0.00 | 85 | 1004.8 |
| 20260505033035 | 5 | 180 | 1.6 | 6.4 | 0.00 | 0.00 | 0.00 | 85 | 1004.8 |
| 20260505031510 | 5 | 178 | 3.2 | 6.4 | 0.00 | 0.00 | 0.00 | 84 | 1004.8 |
| 20260505030017 | 5 | 177 | 1.6 | 6.4 | 0.00 | 0.00 | 0.00 | 84 | 1004.8 |
| 20260505024522 | 5 | 225 | 0.0 | 4.8 | 0.00 | 0.00 | 0.00 | 83 | 1004.6 |
| 20260505023025 | 5 | 215 | 1.6 | 4.8 | 0.00 | 0.00 | 0.00 | 83 | 1004.7 |
| 20260505021529 | 5 | 206 | 1.6 | 6.4 | 0.00 | 0.00 | 0.00 | 82 | 1004.7 |
| 20260505020014 | 5 | 218 | 1.6 | 4.8 | 0.00 | 0.00 | 0.00 | 82 | 1004.8 |
| 20260505014517 | 5 | 210 | 1.6 | 6.4 | 0.00 | 0.00 | 0.00 | 81 | 1004.6 |
| 20260505013019 | 6 | 221 | 1.6 | 9.7 | 0.00 | 0.00 | 0.00 | 80 | 1004.4 |
| 20260505011504 | 6 | 220 | 3.2 | 6.4 | 0.00 | 0.00 | 0.00 | 79 | 1004.2 |
| 20260505010007 | 6 | 234 | 3.2 | 6.4 | 0.00 | 0.00 | 0.00 | 78 | 1004.2 |
| 20260505004518 | 6 | 227 | 3.2 | 12.9 | 0.00 | 0.00 | 0.00 | 76 | 1003.9 |
| 20260505003002 | 7 | 223 | 4.8 | 12.9 | 0.00 | 0.00 | 0.00 | 75 | 1003.7 |
| 20260505001504 | 7 | 200 | 4.8 | 12.9 | 0.00 | 0.00 | 0.00 | 74 | 1003.4 |
| 20260505000007 | 7 | 215 | 6.4 | 11.3 | 0.00 | 0.00 | 0.00 | 72 | 1003.1 |
| 20260504234505 | 8 | 223 | 4.8 | 12.9 | 0.00 | 0.00 | 0.00 | 70 | 1002.8 |
| 20260504233006 | 8 | 281 | 4.8 | 17.7 | 0.00 | 0.00 | 0.00 | 67 | 1002.6 |
| 20260504231511 | 9 | 247 | 4.8 | 19.3 | 0.00 | 0.00 | 0.00 | 66 | 1002.4 |
| 20260504230004 | 9 | 220 | 9.7 | 20.9 | 0.00 | 0.00 | 0.00 | 67 | 1002.3 |
| 20260504224507 | 9 | 281 | 8.0 | 20.9 | 0.00 | 0.03 | 0.00 | 67 | 1002.1 |
| 20260504223010 | 10 | 287 | 11.3 | 22.5 | 0.00 | 0.03 | 0.00 | 66 | 1002.1 |
| 20260504221510 | 10 | 225 | 8.0 | 24.1 | 0.00 | 0.03 | 0.00 | 65 | 1001.9 |
| 20260504220004 | 10 | 288 | 8.0 | 20.9 | 0.00 | 0.03 | 0.00 | 64 | 1001.8 |
| 20260504214504 | 10 | 187 | 9.7 | 19.3 | 0.00 | 0.05 | 0.00 | 64 | 1001.8 |
| 20260504213009 | 11 | 273 | 9.7 | 25.7 | 0.00 | 0.05 | 0.00 | 62 | 1001.7 |
| 20260504211513 | 10 | 273 | 9.7 | 24.1 | 0.00 | 0.05 | 0.00 | 64 | 1001.4 |
| 20260504210014 | 10 | 217 | 9.7 | 22.5 | 0.00 | 0.05 | 0.00 | 64 | 1001.5 |
| 20260504204519 | 10 | 227 | 11.3 | 20.9 | 0.00 | 0.08 | 0.00 | 62 | 1001.4 |
| 20260504203013 | 10 | 234 | 6.4 | 19.3 | 0.00 | 0.08 | 0.00 | 62 | 1001.4 |
| 20260504201510 | 10 | 279 | 6.4 | 12.9 | 0.00 | 0.08 | 0.00 | 64 | 1001.5 |